Bridgeport, CT

5:38 AM EDT on September 16, 2019 (GMT -0400)
Sikorsky Memorial

Weather History for KBDR - August, 2019

Change the Weather History Date:

Sunday, August 25, 2019

  Actual Average Record
Temperature  
Mean Temperature 69 °F 72 °F  
Max Temperature 76 °F 80 °F 93 °F (1969)
Min Temperature 61 °F 65 °F 50 °F (1987)
Degree Days  
Heating Degree Days 0 0  
Month to date heating degree days 0 0  
Since 1 June heating degree days 19 33  
Since 1 July heating degree days 0 1  
Cooling Degree Days 4 7  
Month to date cooling degree days 268 221  
Year to date cooling degree days 873 677  
Since 1 June cooling degree days 846 653  
Growing Degree Days 19 (Base 50)    
Moisture  
Dew Point 54 °F    
Average Humidity 64    
Maximum Humidity 78    
Minimum Humidity 49    
Precipitation  
Precipitation 0.00 in 0.13 in 2.12 in (1967)
Month to date precipitation 1.56 3.31  
Year to date precipitation 34.38 28.25  
Snow  
Snow 0.00 in 0.00 in 0.00 in (2002)
Month to date snowfall 0.0 0.0  
Since 1 July snowfall 0.0 0.0  
Snow Depth 0.00 in    
Sea Level Pressure  
Sea Level Pressure 30.26 in    
Wind  
Wind Speed 13 mph (NE)    
Max Wind Speed 20 mph    
Max Gust Speed 24 mph    
Visibility 10 miles    
Events      
T = Trace of Precipitation, MM = Missing Value Source: NWS Daily Summary

Daily Weather History Graph

Daily Weather History Graph

Search for Another Location

Airport or City:

Astronomy

Aug. 25, 2019 Rise Set
Actual Time 6:11 AM EDT 7:36 PM EDT
Civil Twilight 5:42 AM EDT 8:05 PM EDT
Nautical Twilight 5:08 AM EDT 8:40 PM EDT
Astronomical Twilight 4:31 AM EDT 9:16 PM EDT
Moon 12:43 AM EDT (8/25) 3:56 PM EDT (8/25)
Length of Visible Light 14h 22m
Length of Day
13h 24m
Waning Crescent, 29% of the Moon is Illuminated
Aug 25
Waning Crescent
Aug 30
New
Sep 5
First Quarter
Sep 14
Full
Sep 21
Last Quarter

Hourly Weather History & Observations

Time (EDT) Temp. Dew Point Humidity Pressure Visibility Wind Dir Wind Speed Gust Speed Precip Events Conditions
12:07 AM 69.1 °F 55.9 °F 63% 30.26 in 10.0 mi East 17.3 mph - N/A   Overcast
12:52 AM 68.0 °F 55.9 °F 65% 30.27 in 10.0 mi ENE 11.5 mph 21.9 mph N/A   Scattered Clouds
1:52 AM 66.0 °F 54.0 °F 65% 30.27 in 10.0 mi NE 11.5 mph - N/A   Mostly Cloudy
2:52 AM 64.9 °F 54.0 °F 68% 30.26 in 10.0 mi NNE 9.2 mph - N/A   Clear
3:52 AM 64.0 °F 54.0 °F 70% 30.26 in 10.0 mi NNE 9.2 mph - N/A   Clear
4:52 AM 63.0 °F 51.1 °F 65% 30.26 in 10.0 mi NNE 11.5 mph - N/A   Clear
5:52 AM 63.0 °F 55.9 °F 78% 30.26 in 10.0 mi NNE 10.4 mph - N/A   Clear
6:52 AM 63.0 °F 55.0 °F 75% 30.27 in 10.0 mi NNE 10.4 mph - N/A   Clear
7:52 AM 66.0 °F 55.9 °F 70% 30.28 in 10.0 mi NNE 16.1 mph - N/A   Clear
8:52 AM 68.0 °F 55.0 °F 63% 30.29 in 10.0 mi NE 17.3 mph - N/A   Scattered Clouds
9:52 AM 70.0 °F 54.0 °F 57% 30.29 in 10.0 mi NE 18.4 mph 21.9 mph N/A   Mostly Cloudy
10:52 AM 72.0 °F 52.0 °F 49% 30.28 in 10.0 mi NE 12.7 mph 21.9 mph N/A   Mostly Cloudy
11:52 AM 73.9 °F 53.1 °F 48% 30.28 in 10.0 mi NE 13.8 mph - N/A   Mostly Cloudy
12:52 PM 73.9 °F 53.1 °F 48% 30.27 in 10.0 mi East 13.8 mph - N/A   Overcast
1:52 PM 73.9 °F 55.0 °F 52% 30.26 in 10.0 mi East 15.0 mph - N/A   Overcast
2:52 PM 73.9 °F 57.9 °F 57% 30.25 in 10.0 mi East 15.0 mph - N/A   Mostly Cloudy
3:52 PM 73.9 °F 54.0 °F 50% 30.25 in 10.0 mi NE 12.7 mph - N/A   Mostly Cloudy
4:52 PM 73.0 °F 55.9 °F 55% 30.23 in 10.0 mi ENE 15.0 mph - N/A   Mostly Cloudy
5:52 PM 73.0 °F 57.0 °F 57% 30.22 in 10.0 mi East 13.8 mph - N/A   Scattered Clouds
6:52 PM 71.1 °F 55.9 °F 59% 30.23 in 10.0 mi East 16.1 mph - N/A   Overcast
7:52 PM 70.0 °F 55.9 °F 61% 30.24 in 10.0 mi ENE 18.4 mph - N/A   Overcast
8:52 PM 68.0 °F 54.0 °F 61% 30.26 in 10.0 mi ENE 15.0 mph - N/A   Partly Cloudy
9:52 PM 66.0 °F 53.1 °F 63% 30.26 in 10.0 mi NE 12.7 mph - N/A   Clear
10:52 PM 64.0 °F 50.0 °F 60% 30.26 in 10.0 mi NE 12.7 mph - N/A   Clear
11:52 PM 62.1 °F 50.0 °F 65% 30.25 in 10.0 mi NNE 10.4 mph - N/A   Clear